FW4685 Weather Reports


time (UTC)temp
C
wind
direction
speed
KPH
gust
KPH
rain 1hr
cm
rain 24hr
cm
rain mn
cm
humidity
%
barometer
mb
20260507065106 7 325 0.0 0.0 0.00 0.00 0.00 91 1018.2
20260507064018 6 52 0.0 0.0 0.00 0.00 0.00 94 1018.0
20260507063030 6 105 0.0 0.0 0.00 0.00 0.00 96 1018.2
20260507062025 6 77 0.0 0.0 0.00 0.00 0.00 97 1018.0
20260507061018 5 326 0.0 0.0 0.00 0.00 0.00 98 1018.0
20260507060019 5 357 0.0 0.0 0.00 0.00 0.00 98 1017.8
20260507055030 4 357 0.0 0.0 0.00 0.00 0.00 98 1017.9
20260507054046 4 330 0.0 0.0 0.00 0.00 0.00 98 1017.7
20260507053018 3 14 0.0 0.0 0.00 0.00 0.00 99 1017.6
20260507052051 3 354 0.0 0.0 0.00 0.00 0.00 98 1017.6
20260507051026 3 351 0.0 0.0 0.00 0.00 0.00 98 1017.7
20260507050018 3 6 0.0 0.0 0.00 0.00 0.00 98 1017.6
20260507045106 3 48 0.0 0.0 0.00 0.00 0.00 98 1017.5
20260507044018 3 53 0.0 0.0 0.00 0.00 0.00 98 1017.5
20260507043111 3 10 0.0 0.0 0.00 0.00 0.00 97 1017.5
20260507042026 4 32 0.0 0.0 0.00 0.00 0.00 97 1017.5
20260507041046 4 8 0.0 0.0 0.00 0.00 0.00 97 1017.5
20260507040019 4 53 0.0 0.0 0.00 0.00 0.00 97 1017.5
20260507035050 5 348 0.0 0.0 0.00 0.00 0.00 96 1017.4
20260507034031 5 353 0.0 0.0 0.00 0.00 0.00 96 1017.4
20260507033022 5 353 0.0 0.0 0.00 0.00 0.00 95 1017.3
20260507032030 5 21 0.0 0.0 0.00 0.00 0.00 95 1017.3
20260507031027 5 15 0.0 0.0 0.00 0.00 0.00 94 1017.2
20260507030022 5 17 0.0 0.0 0.00 0.00 0.00 94 1017.3
20260507025018 5 359 0.0 0.0 0.00 0.00 0.00 94 1017.2
20260507024030 5 17 0.0 0.0 0.00 0.00 0.00 94 1017.3
20260507023026 5 13 0.0 0.0 0.00 0.00 0.00 93 1017.4
20260507022019 6 1 0.0 0.0 0.00 0.00 0.00 93 1017.3
20260507021018 6 354 0.0 0.0 0.00 0.00 0.00 92 1017.1
20260507020030 6 17 0.0 0.0 0.00 0.00 0.00 92 1017.0
20260507015025 6 15 0.0 0.0 0.00 0.00 0.00 91 1017.1
20260507014022 7 1 0.0 0.0 0.00 0.00 0.00 91 1017.1
20260507013021 7 359 0.0 0.0 0.00 0.00 0.00 90 1017.1
20260507012031 7 15 0.0 0.0 0.00 0.00 0.00 89 1017.1
20260507011025 7 10 0.0 0.0 0.00 0.00 0.00 89 1017.1
20260507010022 7 23 0.0 0.0 0.00 0.00 0.00 88 1017.0
20260507005021 7 11 0.0 8.0 0.00 0.00 0.00 88 1017.0
20260507004033 7 9 0.0 0.0 0.00 0.00 0.00 87 1017.1
20260507003025 7 9 0.0 0.0 0.00 0.00 0.00 87 1017.1
20260507002022 7 5 0.0 0.0 0.00 0.00 0.00 87 1017.2
20260507001025 8 12 0.0 0.0 0.00 0.00 0.00 86 1017.1
20260507000018 8 358 0.0 0.0 0.00 0.00 0.00 85 1017.2
20260506235018 8 22 0.0 0.0 0.00 0.00 0.00 84 1017.0
20260506234033 8 19 0.0 0.0 0.00 0.00 0.00 83 1016.9
20260506233031 9 20 0.0 0.0 0.00 0.00 0.00 82 1016.9
20260506232026 9 32 0.0 0.0 0.00 0.00 0.00 81 1016.9
20260506231019 9 35 1.6 8.0 0.00 0.00 0.00 80 1016.9
20260506230029 10 30 0.0 0.0 0.00 0.00 0.00 80 1016.8
20260506225026 10 31 0.0 0.0 0.00 0.00 0.00 79 1016.9
20260506224025 10 29 0.0 0.0 0.00 0.00 0.00 78 1016.9
20260506223018 10 49 0.0 8.0 0.00 0.00 0.00 76 1016.9
20260506222029 10 28 0.0 8.0 0.00 0.00 0.00 75 1016.8
20260506221026 10 25 1.6 8.0 0.00 0.00 0.00 74 1016.7
20260506220045 10 26 3.2 11.3 0.00 0.00 0.00 74 1016.7
20260506215018 10 18 1.6 8.0 0.00 0.00 0.00 74 1016.7
20260506214030 11 26 1.6 8.0 0.00 0.00 0.00 73 1016.7
20260506213025 11 23 1.6 8.0 0.00 0.00 0.00 73 1016.7
20260506212022 11 25 1.6 8.0 0.00 0.00 0.00 73 1016.7
20260506211019 11 17 1.6 8.0 0.00 0.00 0.00 72 1016.6
20260506210030 11 20 3.2 11.3 0.00 0.00 0.00 72 1016.5
20260506205025 11 28 1.6 16.1 0.00 0.00 0.00 71 1016.4
20260506204018 11 30 1.6 11.3 0.00 0.00 0.00 69 1016.3
20260506203029 11 33 1.6 8.0 0.00 0.00 0.00 67 1016.3
20260506202026 11 36 3.2 11.3 0.00 0.00 0.00 66 1016.2
20260506201033 12 11 0.0 8.0 0.00 0.00 0.00 66 1016.2
20260506200018 12 23 3.2 16.1 0.00 0.00 0.00 65 1016.0
20260506195029 12 26 3.2 11.3 0.00 0.00 0.00 64 1015.9
20260506194046 12 32 4.8 16.1 0.00 0.00 0.00 63 1015.7
20260506193019 12 16 1.6 11.3 0.00 0.00 0.00 64 1015.8
20260506192029 12 23 3.2 16.1 0.00 0.00 0.00 63 1015.7
20260506191025 12 36 3.2 11.3 0.00 0.00 0.00 61 1015.5
20260506190025 12 29 1.6 8.0 0.00 0.00 0.00 61 1015.5
20260506185018 12 26 3.2 8.0 0.00 0.00 0.00 60 1015.4
20260506184029 12 25 3.2 11.3 0.00 0.00 0.00 60 1015.3
20260506183018 12 29 3.2 11.3 0.00 0.00 0.00 60 1015.3
20260506182029 12 25 4.8 16.1 0.00 0.00 0.00 60 1015.2
20260506181029 12 29 3.2 11.3 0.00 0.00 0.00 61 1015.1
20260506180025 12 30 3.2 11.3 0.00 0.00 0.00 61 1015.0
20260506175025 13 23 3.2 11.3 0.00 0.00 0.00 60 1014.9
20260506174038 13 27 3.2 11.3 0.00 0.00 0.00 60 1014.8
20260506173029 13 22 3.2 8.0 0.00 0.00 0.00 59 1014.7
20260506172026 13 27 3.2 11.3 0.00 0.00 0.00 59 1014.7
20260506171025 13 347 1.6 8.0 0.00 0.00 0.00 60 1014.8
20260506170027 13 31 3.2 11.3 0.00 0.00 0.00 60 1014.7
20260506165044 13 39 1.6 16.1 0.00 0.00 0.00 59 1014.6
20260506164043 13 27 3.2 11.3 0.00 0.00 0.00 58 1014.7
20260506163019 13 31 1.6 11.3 0.00 0.00 0.00 59 1014.7
20260506162033 13 32 4.8 16.1 0.00 0.00 0.00 59 1014.7
20260506161052 13 29 3.2 11.3 0.00 0.00 0.00 59 1014.7
20260506160047 12 16 3.2 11.3 0.00 0.00 0.00 60 1014.8
20260506155044 12 11 0.0 8.0 0.00 0.00 0.00 61 1014.9
20260506154033 12 18 3.2 11.3 0.00 0.00 0.00 61 1014.9
20260506153027 12 17 1.6 11.3 0.00 0.00 0.00 62 1014.9
20260506152022 13 3 3.2 11.3 0.00 0.00 0.00 62 1015.0
20260506151052 14 28 3.2 11.3 0.00 0.00 0.00 62 1014.9
20260506150028 15 21 4.8 16.1 0.00 0.00 0.00 62 1014.9
20260506145027 15 29 8.0 24.1 0.00 0.00 0.00 56 1014.9
20260506144022 14 16 1.6 16.1 0.00 0.00 0.00 53 1014.7
20260506143031 13 16 4.8 11.3 0.00 0.00 0.00 57 1014.8
20260506142027 14 19 3.2 16.1 0.00 0.00 0.00 59 1014.9
20260506141027 14 26 4.8 24.1 0.00 0.00 0.00 57 1014.9
20260506140023 14 32 6.4 24.1 0.00 0.00 0.00 58 1014.9
20260506135111 14 24 4.8 19.3 0.00 0.00 0.00 59 1015.0
20260506134027 14 16 3.2 16.1 0.00 0.00 0.00 58 1014.9
20260506133046 14 16 4.8 16.1 0.00 0.00 0.00 59 1014.9
20260506132033 15 22 6.4 27.4 0.00 0.00 0.00 56 1014.9
20260506131027 15 14 3.2 11.3 0.00 0.00 0.00 57 1015.0
20260506130023 15 11 4.8 19.3 0.00 0.00 0.00 55 1014.8
20260506125023 15 29 4.8 19.3 0.00 0.00 0.00 54 1014.9
20260506124032 14 10 4.8 19.3 0.00 0.00 0.00 56 1015.0
20260506123026 14 10 6.4 19.3 0.00 0.00 0.00 55 1014.9
20260506122027 14 32 6.4 19.3 0.00 0.00 0.00 56 1014.9
20260506121024 14 16 6.4 24.1 0.00 0.00 0.00 56 1015.0
20260506120019 14 20 3.2 16.1 0.00 0.00 0.00 56 1015.0
20260506115032 13 1 3.2 27.4 0.00 0.00 0.00 56 1015.1
20260506114027 14 20 4.8 16.1 0.00 0.00 0.00 57 1015.0
20260506113024 13 17 4.8 24.1 0.00 0.00 0.00 55 1015.0
20260506112052 13 27 4.8 19.3 0.00 0.00 0.00 56 1015.2
20260506111027 13 7 4.8 16.1 0.00 0.00 0.00 55 1015.1
20260506110022 13 354 4.8 16.1 0.00 0.00 0.00 55 1015.1
20260506105031 13 18 4.8 16.1 0.00 0.00 0.00 56 1015.1
20260506104107 13 28 6.4 19.3 0.00 0.00 0.00 57 1015.1
20260506103024 13 35 4.8 16.1 0.00 0.00 0.00 56 1015.1
20260506102034 13 24 3.2 16.1 0.00 0.00 0.00 56 1015.1
20260506101031 13 26 4.8 16.1 0.00 0.00 0.00 58 1015.1
20260506100026 13 19 4.8 19.3 0.00 0.00 0.00 55 1015.1
20260506095022 12 26 3.2 16.1 0.00 0.00 0.00 58 1015.0
20260506094031 12 25 3.2 19.3 0.00 0.00 0.00 62 1015.1
20260506093026 12 354 3.2 11.3 0.00 0.00 0.00 64 1015.2
20260506092025 12 51 1.6 11.3 0.00 0.00 0.00 66 1015.2
20260506091637 11 58 3.2 8.0 0.00 0.00 0.00 66 1015.1
20260506072022 9 30 4.8 11.3 0.00 0.00 0.00 75 1015.2
20260506071025 9 27 3.2 8.0 0.00 0.00 0.00 76 1015.2